Year,Month,Day,Hour,Minute,Value (Times are PST for temperature in C)
2012,04,21,00,00,3.80
2012,04,21,00,01,3.80
2012,04,21,00,02,3.80
2012,04,21,00,03,3.80
2012,04,21,00,04,3.90
2012,04,21,00,05,3.90
2012,04,21,00,06,4.00
2012,04,21,00,07,4.10
2012,04,21,00,08,4.10
2012,04,21,00,09,4.20
2012,04,21,00,10,4.20
2012,04,21,00,11,4.20
2012,04,21,00,12,4.20
2012,04,21,00,13,4.20
2012,04,21,00,14,4.20
2012,04,21,00,15,4.20
2012,04,21,00,16,4.20
2012,04,21,00,17,4.20
2012,04,21,00,18,4.30
2012,04,21,00,19,4.30
2012,04,21,00,20,4.30
2012,04,21,00,21,4.40
2012,04,21,00,22,4.40
2012,04,21,00,23,4.40
2012,04,21,00,24,4.40
2012,04,21,00,25,4.40
2012,04,21,00,26,4.40
2012,04,21,00,27,4.40
2012,04,21,00,28,4.30
2012,04,21,00,29,4.30
2012,04,21,00,30,4.30
2012,04,21,00,31,4.30
2012,04,21,00,32,4.20
2012,04,21,00,33,4.20
2012,04,21,00,34,4.20
2012,04,21,00,35,4.10
2012,04,21,00,36,4.10
2012,04,21,00,37,4.00
2012,04,21,00,38,4.00
2012,04,21,00,39,3.90
2012,04,21,00,40,3.90
2012,04,21,00,41,3.90
2012,04,21,00,42,3.80
2012,04,21,00,43,3.80
2012,04,21,00,44,3.80
2012,04,21,00,45,3.80
2012,04,21,00,46,3.70
2012,04,21,00,47,3.70
2012,04,21,00,48,3.70
2012,04,21,00,49,3.70
2012,04,21,00,50,3.60
2012,04,21,00,51,3.60
2012,04,21,00,52,3.50
2012,04,21,00,53,3.50
2012,04,21,00,54,3.50
2012,04,21,00,55,3.40
2012,04,21,00,56,3.40
2012,04,21,00,57,3.40
2012,04,21,00,58,3.40
2012,04,21,00,59,3.40
2012,04,21,01,00,3.40
2012,04,21,01,01,3.40
2012,04,21,01,02,3.40
2012,04,21,01,03,3.30
2012,04,21,01,04,3.30
2012,04,21,01,05,3.30
2012,04,21,01,06,3.30
2012,04,21,01,07,3.30
2012,04,21,01,08,3.30
2012,04,21,01,09,3.30
2012,04,21,01,10,3.30
2012,04,21,01,11,3.30
2012,04,21,01,12,3.30
2012,04,21,01,13,3.30
2012,04,21,01,14,3.30
2012,04,21,01,15,3.30
2012,04,21,01,16,3.30
2012,04,21,01,17,3.30
2012,04,21,01,18,3.40
2012,04,21,01,19,3.40
2012,04,21,01,20,3.40
2012,04,21,01,21,3.40
2012,04,21,01,22,3.40
2012,04,21,01,23,3.50
2012,04,21,01,24,3.50
2012,04,21,01,25,3.50
2012,04,21,01,26,3.50
2012,04,21,01,27,3.50
2012,04,21,01,28,3.50
2012,04,21,01,29,3.50
2012,04,21,01,30,3.50
2012,04,21,01,31,3.40
2012,04,21,01,32,3.40
2012,04,21,01,33,3.40
2012,04,21,01,34,3.40
2012,04,21,01,35,3.40
2012,04,21,01,36,3.30
2012,04,21,01,37,3.30
2012,04,21,01,38,3.30
2012,04,21,01,39,3.30
2012,04,21,01,40,3.30
2012,04,21,01,41,3.30
2012,04,21,01,42,3.30
2012,04,21,01,43,3.20
2012,04,21,01,44,3.20
2012,04,21,01,45,3.20
2012,04,21,01,46,3.20
2012,04,21,01,47,3.10
2012,04,21,01,48,3.10
2012,04,21,01,49,3.00
2012,04,21,01,50,3.00
2012,04,21,01,51,3.00
2012,04,21,01,52,3.00
2012,04,21,01,53,2.90
2012,04,21,01,54,2.90
2012,04,21,01,55,2.90
2012,04,21,01,56,2.90
2012,04,21,01,57,2.90
2012,04,21,01,58,2.90
2012,04,21,01,59,2.80
2012,04,21,02,00,2.80
2012,04,21,02,01,2.80
2012,04,21,02,02,2.80
2012,04,21,02,03,2.70
2012,04,21,02,04,2.70
2012,04,21,02,05,2.70
2012,04,21,02,06,2.70
2012,04,21,02,07,2.60
2012,04,21,02,08,2.60
2012,04,21,02,09,2.60
2012,04,21,02,10,2.60
2012,04,21,02,11,2.60
2012,04,21,02,12,2.60
2012,04,21,02,13,2.60
2012,04,21,02,14,2.50
2012,04,21,02,15,2.50
2012,04,21,02,16,2.50
2012,04,21,02,17,2.50
2012,04,21,02,18,2.50
2012,04,21,02,19,2.50
2012,04,21,02,20,2.40
2012,04,21,02,21,2.40
2012,04,21,02,22,2.40
2012,04,21,02,23,2.40
2012,04,21,02,24,2.30
2012,04,21,02,25,2.30
2012,04,21,02,26,2.30
2012,04,21,02,27,2.30
2012,04,21,02,28,2.30
2012,04,21,02,29,2.30
2012,04,21,02,30,2.30
2012,04,21,02,31,2.30
2012,04,21,02,32,2.30
2012,04,21,02,33,2.30
2012,04,21,02,34,2.30
2012,04,21,02,35,2.30
2012,04,21,02,36,2.30
2012,04,21,02,37,2.40
2012,04,21,02,38,2.30
2012,04,21,02,39,2.30
2012,04,21,02,40,2.30
2012,04,21,02,41,2.30
2012,04,21,02,42,2.30
2012,04,21,02,43,2.30
2012,04,21,02,44,2.30
2012,04,21,02,45,2.20
2012,04,21,02,46,2.20
2012,04,21,02,47,2.20
2012,04,21,02,48,2.20
2012,04,21,02,49,2.20
2012,04,21,02,50,2.20
2012,04,21,02,51,2.20
2012,04,21,02,52,2.20
2012,04,21,02,53,2.20
2012,04,21,02,54,2.10
2012,04,21,02,55,2.20
2012,04,21,02,56,2.10
2012,04,21,02,57,2.10
2012,04,21,02,58,2.10
2012,04,21,02,59,2.10
2012,04,21,03,00,2.10
2012,04,21,03,01,2.00
2012,04,21,03,02,2.00
2012,04,21,03,03,2.00
2012,04,21,03,06,2.00
2012,04,21,03,07,1.90
2012,04,21,03,08,1.90
2012,04,21,03,09,1.90
2012,04,21,03,10,1.90
2012,04,21,03,11,1.90
2012,04,21,03,12,1.90
2012,04,21,03,13,1.90
2012,04,21,03,14,1.90
2012,04,21,03,15,1.80
2012,04,21,03,16,1.80
2012,04,21,03,17,1.80
2012,04,21,03,18,1.80
2012,04,21,03,19,1.80
2012,04,21,03,20,1.80
2012,04,21,03,21,1.80
2012,04,21,03,22,1.80
2012,04,21,03,23,1.80
2012,04,21,03,24,1.80
2012,04,21,03,25,1.80
2012,04,21,03,26,1.90
2012,04,21,03,27,1.90
2012,04,21,03,28,1.90
2012,04,21,03,29,1.90
2012,04,21,03,30,1.90
2012,04,21,03,31,1.90
2012,04,21,03,32,1.90
2012,04,21,03,33,1.90
2012,04,21,03,34,1.90
2012,04,21,03,35,1.80
2012,04,21,03,36,1.80
2012,04,21,03,37,1.80
2012,04,21,03,38,1.80
2012,04,21,03,39,1.90
2012,04,21,03,40,1.80
2012,04,21,03,41,1.80
2012,04,21,03,42,1.80
2012,04,21,03,43,1.80
2012,04,21,03,44,1.80
2012,04,21,03,45,1.80
2012,04,21,03,46,1.80
2012,04,21,03,47,1.80
2012,04,21,03,48,1.80
2012,04,21,03,49,1.70
2012,04,21,03,50,1.70
2012,04,21,03,51,1.70
2012,04,21,03,52,1.70
2012,04,21,03,53,1.70
2012,04,21,03,54,1.70
2012,04,21,03,55,1.70
2012,04,21,03,56,1.70
2012,04,21,03,57,1.70
2012,04,21,03,58,1.70
2012,04,21,03,59,1.70
2012,04,21,04,00,1.70
2012,04,21,04,01,1.70
2012,04,21,04,02,1.70
2012,04,21,04,03,1.70
2012,04,21,04,04,1.80
2012,04,21,04,05,1.80
2012,04,21,04,06,1.80
2012,04,21,04,07,1.80
2012,04,21,04,08,1.80
2012,04,21,04,09,1.80
2012,04,21,04,10,1.80
2012,04,21,04,11,1.70
2012,04,21,04,12,1.70
2012,04,21,04,13,1.70
2012,04,21,04,14,1.70
2012,04,21,04,15,1.70
2012,04,21,04,16,1.70
2012,04,21,04,17,1.70
2012,04,21,04,18,1.70
2012,04,21,04,19,1.70
2012,04,21,04,20,1.70
2012,04,21,04,21,1.70
2012,04,21,04,22,1.70
2012,04,21,04,23,1.70
2012,04,21,04,24,1.70
2012,04,21,04,25,1.70
2012,04,21,04,26,1.60
2012,04,21,04,27,1.60
2012,04,21,04,28,1.60
2012,04,21,04,29,1.60
2012,04,21,04,30,1.70
2012,04,21,04,31,1.70
2012,04,21,04,32,1.70
2012,04,21,04,33,1.70
2012,04,21,04,34,1.70
2012,04,21,04,35,1.70
2012,04,21,04,36,1.70
2012,04,21,04,37,1.70
2012,04,21,04,38,1.70
2012,04,21,04,39,1.60
2012,04,21,04,40,1.60
2012,04,21,04,41,1.60
2012,04,21,04,42,1.60
2012,04,21,04,43,1.60
2012,04,21,04,44,1.60
2012,04,21,04,45,1.60
2012,04,21,04,46,1.60
2012,04,21,04,47,1.60
2012,04,21,04,48,1.60
2012,04,21,04,49,1.60
2012,04,21,04,50,1.50
2012,04,21,04,51,1.50
2012,04,21,04,52,1.50
2012,04,21,04,53,1.50
2012,04,21,04,54,1.50
2012,04,21,04,55,1.50
2012,04,21,04,56,1.60
2012,04,21,04,57,1.60
2012,04,21,04,58,1.60
2012,04,21,04,59,1.60
2012,04,21,05,00,1.60
2012,04,21,05,01,1.60
2012,04,21,05,02,1.60
2012,04,21,05,03,1.60
2012,04,21,05,04,1.70
2012,04,21,05,05,1.70
2012,04,21,05,06,1.70
2012,04,21,05,07,1.70
2012,04,21,05,08,1.70
2012,04,21,05,09,1.70
2012,04,21,05,10,1.70
2012,04,21,05,11,1.70
2012,04,21,05,12,1.70
2012,04,21,05,13,1.70
2012,04,21,05,14,1.70
2012,04,21,05,15,1.70
2012,04,21,05,16,1.70
2012,04,21,05,17,1.70
2012,04,21,05,18,1.70
2012,04,21,05,19,1.70
2012,04,21,05,20,1.70
2012,04,21,05,21,1.80
2012,04,21,05,22,1.80
2012,04,21,05,23,1.80
2012,04,21,05,24,1.90
2012,04,21,05,25,1.90
2012,04,21,05,26,1.90
2012,04,21,05,27,1.90
2012,04,21,05,28,1.90
2012,04,21,05,29,1.90
2012,04,21,05,30,2.00
2012,04,21,05,31,2.00
2012,04,21,05,32,1.90
2012,04,21,05,33,1.90
2012,04,21,05,34,1.90
2012,04,21,05,35,1.90
2012,04,21,05,36,1.90
2012,04,21,05,37,2.00
2012,04,21,05,38,2.00
2012,04,21,05,39,2.00
2012,04,21,05,40,2.00
2012,04,21,05,41,1.90
2012,04,21,05,42,1.90
2012,04,21,05,43,1.90
2012,04,21,05,44,1.90
2012,04,21,05,45,1.90
2012,04,21,05,46,1.90
2012,04,21,05,47,1.90
2012,04,21,05,48,1.90
2012,04,21,05,49,1.90
2012,04,21,05,50,2.00
2012,04,21,05,51,2.00
2012,04,21,05,52,2.00
2012,04,21,05,53,2.00
2012,04,21,05,54,2.00
2012,04,21,05,55,2.00
2012,04,21,05,56,2.00
2012,04,21,05,57,2.00
2012,04,21,05,58,2.00
2012,04,21,05,59,2.00
2012,04,21,06,00,2.00
2012,04,21,06,01,2.00
2012,04,21,06,02,2.00
2012,04,21,06,03,2.00
2012,04,21,06,04,2.00
2012,04,21,06,05,2.00
2012,04,21,06,06,2.00
2012,04,21,06,07,2.00
2012,04,21,06,08,2.00
2012,04,21,06,09,2.00
2012,04,21,06,10,2.10
2012,04,21,06,11,2.10
2012,04,21,06,12,2.10
2012,04,21,06,13,2.10
2012,04,21,06,14,2.10
2012,04,21,06,15,2.10
2012,04,21,06,16,2.10
2012,04,21,06,17,2.10
2012,04,21,06,18,2.10
2012,04,21,06,19,2.10
2012,04,21,06,20,2.10
2012,04,21,06,21,2.10
2012,04,21,06,22,2.10
2012,04,21,06,23,2.10
2012,04,21,06,24,2.10
2012,04,21,06,25,2.10
2012,04,21,06,26,2.10
2012,04,21,06,27,2.10
2012,04,21,06,28,2.10
2012,04,21,06,29,2.10
2012,04,21,06,30,2.20
2012,04,21,06,31,2.20
2012,04,21,06,32,2.20
2012,04,21,06,33,2.20
2012,04,21,06,34,2.20
2012,04,21,06,35,2.20
2012,04,21,06,36,2.20
2012,04,21,06,37,2.20
2012,04,21,06,38,2.20
2012,04,21,06,39,2.20
2012,04,21,06,40,2.20
2012,04,21,06,41,2.20
2012,04,21,06,42,2.20
2012,04,21,06,43,2.20
2012,04,21,06,44,2.20
2012,04,21,06,45,2.20
2012,04,21,06,46,2.20
2012,04,21,06,47,2.20
2012,04,21,06,48,2.20
2012,04,21,06,49,2.20
2012,04,21,06,50,2.30
2012,04,21,06,51,2.30
2012,04,21,06,52,2.30
2012,04,21,06,53,2.30
2012,04,21,06,54,2.30
2012,04,21,06,55,2.40
2012,04,21,06,56,2.40
2012,04,21,06,57,2.40
2012,04,21,06,58,2.40
2012,04,21,06,59,2.50
2012,04,21,07,00,2.50
2012,04,21,07,01,2.60
2012,04,21,07,02,2.60
2012,04,21,07,03,2.60
2012,04,21,07,04,2.70
2012,04,21,07,05,2.70
2012,04,21,07,06,2.80
2012,04,21,07,07,2.80
2012,04,21,07,08,2.80
2012,04,21,07,09,2.90
2012,04,21,07,10,3.00
2012,04,21,07,11,3.00
2012,04,21,07,12,3.10
2012,04,21,07,13,3.10
2012,04,21,07,14,3.20
2012,04,21,07,15,3.30
2012,04,21,07,16,3.40
2012,04,21,07,17,3.50
2012,04,21,07,18,3.60
2012,04,21,07,19,3.70
2012,04,21,07,20,3.80
2012,04,21,07,21,4.00
2012,04,21,07,22,4.10
2012,04,21,07,23,4.20
2012,04,21,07,24,4.20
2012,04,21,07,25,4.30
2012,04,21,07,26,4.40
2012,04,21,07,27,4.50
2012,04,21,07,28,4.50
2012,04,21,07,29,4.60
2012,04,21,07,30,4.70
2012,04,21,07,31,4.70
2012,04,21,07,32,4.80
2012,04,21,07,33,4.80
2012,04,21,07,34,4.90
2012,04,21,07,35,4.90
2012,04,21,07,36,5.00
2012,04,21,07,37,5.00
2012,04,21,07,38,5.10
2012,04,21,07,39,5.10
2012,04,21,07,40,5.20
2012,04,21,07,41,5.20
2012,04,21,07,42,5.20
2012,04,21,07,43,5.30
2012,04,21,07,44,5.30
2012,04,21,07,45,5.40
2012,04,21,07,46,5.40
2012,04,21,07,47,5.50
2012,04,21,07,48,5.50
2012,04,21,07,49,5.50
2012,04,21,07,50,5.60
2012,04,21,07,51,5.60
2012,04,21,07,52,5.60
2012,04,21,07,53,5.70
2012,04,21,07,54,5.70
2012,04,21,07,55,5.70
2012,04,21,07,56,5.80
2012,04,21,07,57,5.80
2012,04,21,07,58,5.80
2012,04,21,07,59,5.80
2012,04,21,08,00,5.90
2012,04,21,08,01,5.90
2012,04,21,08,02,5.90
2012,04,21,08,03,6.00
2012,04,21,08,04,6.00
2012,04,21,08,05,6.10
2012,04,21,08,06,6.10
2012,04,21,08,07,6.20
2012,04,21,08,08,6.20
2012,04,21,08,09,6.20
2012,04,21,08,10,6.20
2012,04,21,08,11,6.30
2012,04,21,08,12,6.30
2012,04,21,08,13,6.40
2012,04,21,08,14,6.40
2012,04,21,08,15,6.40
2012,04,21,08,16,6.50
2012,04,21,08,17,6.50
2012,04,21,08,18,6.60
2012,04,21,08,19,6.60
2012,04,21,08,20,6.70
2012,04,21,08,21,6.70
2012,04,21,08,22,6.80
2012,04,21,08,23,6.80
2012,04,21,08,24,6.80
2012,04,21,08,25,6.90
2012,04,21,08,26,7.00
2012,04,21,08,27,7.00
2012,04,21,08,28,7.10
2012,04,21,08,29,7.20
2012,04,21,08,30,7.20
2012,04,21,08,31,7.30
2012,04,21,08,32,7.30
2012,04,21,08,33,7.30
2012,04,21,08,34,7.40
2012,04,21,08,35,7.40
2012,04,21,08,36,7.50
2012,04,21,08,37,7.60
2012,04,21,08,38,7.70
2012,04,21,08,39,7.70
2012,04,21,08,40,7.80
2012,04,21,08,41,7.90
2012,04,21,08,42,7.90
2012,04,21,08,43,8.00
2012,04,21,08,44,8.10
2012,04,21,08,45,8.10
2012,04,21,08,46,8.20
2012,04,21,08,47,8.20
2012,04,21,08,48,8.20
2012,04,21,08,49,8.30
2012,04,21,08,50,8.30
2012,04,21,08,51,8.30
2012,04,21,08,52,8.30
2012,04,21,08,53,8.30
2012,04,21,08,54,8.40
2012,04,21,08,55,8.40
2012,04,21,08,56,8.40
2012,04,21,08,57,8.50
2012,04,21,08,58,8.50
2012,04,21,08,59,8.60
2012,04,21,09,00,8.60
2012,04,21,09,01,8.70
2012,04,21,09,02,8.70
2012,04,21,09,03,8.80
2012,04,21,09,04,8.90
2012,04,21,09,05,8.90
2012,04,21,09,06,9.00
2012,04,21,09,07,9.10
2012,04,21,09,08,9.20
2012,04,21,09,09,9.30
2012,04,21,09,10,9.40
2012,04,21,09,11,9.50
2012,04,21,09,12,9.60
2012,04,21,09,13,9.60
2012,04,21,09,14,9.70
2012,04,21,09,15,9.70
2012,04,21,09,16,9.80
2012,04,21,09,17,9.80
2012,04,21,09,18,9.80
2012,04,21,09,19,9.90
2012,04,21,09,20,9.90
2012,04,21,09,21,10.00
2012,04,21,09,22,10.10
2012,04,21,09,23,10.10
2012,04,21,09,24,10.20
2012,04,21,09,25,10.20
2012,04,21,09,26,10.20
2012,04,21,09,27,10.20
2012,04,21,09,28,10.20
2012,04,21,09,29,10.20
2012,04,21,09,30,10.30
2012,04,21,09,31,10.30
2012,04,21,09,32,10.30
2012,04,21,09,33,10.40
2012,04,21,09,34,10.50
2012,04,21,09,35,10.60
2012,04,21,09,36,10.60
2012,04,21,09,37,10.70
2012,04,21,09,38,10.70
2012,04,21,09,39,10.70
2012,04,21,09,40,10.70
2012,04,21,09,41,10.70
2012,04,21,09,42,10.70
2012,04,21,09,43,10.80
2012,04,21,09,44,10.80
2012,04,21,09,45,10.80
2012,04,21,09,46,10.90
2012,04,21,09,47,10.90
2012,04,21,09,48,11.00
2012,04,21,09,49,11.00
2012,04,21,09,50,11.10
2012,04,21,09,51,11.10
2012,04,21,09,52,11.10
2012,04,21,09,53,11.10
2012,04,21,09,54,11.10
2012,04,21,09,55,11.10
2012,04,21,09,56,11.20
2012,04,21,09,57,11.20
2012,04,21,09,58,11.20
2012,04,21,09,59,11.20
2012,04,21,10,00,11.20
2012,04,21,10,01,11.30
2012,04,21,10,02,11.30
2012,04,21,10,03,11.30
2012,04,21,10,04,11.20
2012,04,21,10,05,11.20
2012,04,21,10,06,11.30
2012,04,21,10,07,11.30
2012,04,21,10,08,11.30
2012,04,21,10,09,11.40
2012,04,21,10,10,11.50
2012,04,21,10,11,11.60
2012,04,21,10,12,11.70
2012,04,21,10,13,11.80
2012,04,21,10,14,11.90
2012,04,21,10,15,12.00
2012,04,21,10,16,12.10
2012,04,21,10,17,12.20
2012,04,21,10,18,12.30
2012,04,21,10,19,12.30
2012,04,21,10,20,12.40
2012,04,21,10,21,12.50
2012,04,21,10,22,12.60
2012,04,21,10,23,12.80
2012,04,21,10,24,12.90
2012,04,21,10,25,13.00
2012,04,21,10,26,13.10
2012,04,21,10,27,13.20
2012,04,21,10,28,13.20
2012,04,21,10,29,13.40
2012,04,21,10,30,13.30
2012,04,21,10,31,13.20
2012,04,21,10,32,13.10
2012,04,21,10,33,13.00
2012,04,21,10,34,12.80
2012,04,21,10,35,12.80
2012,04,21,10,36,12.70
2012,04,21,10,37,12.80
2012,04,21,10,38,12.70
2012,04,21,10,39,12.60
2012,04,21,10,40,12.60
2012,04,21,10,41,12.50
2012,04,21,10,42,12.40
2012,04,21,10,43,12.40
2012,04,21,10,44,12.40
2012,04,21,10,45,12.40
2012,04,21,10,46,12.30
2012,04,21,10,47,12.30
2012,04,21,10,48,12.30
2012,04,21,10,49,12.30
2012,04,21,10,50,12.30
2012,04,21,10,51,12.30
2012,04,21,10,52,12.40
2012,04,21,10,53,12.50
2012,04,21,10,54,12.50
2012,04,21,10,55,12.50
2012,04,21,10,56,12.60
2012,04,21,10,57,12.70
2012,04,21,10,58,12.70
2012,04,21,10,59,12.70
2012,04,21,11,00,12.70
2012,04,21,11,01,12.70
2012,04,21,11,02,12.70
2012,04,21,11,03,12.70
2012,04,21,11,04,12.80
2012,04,21,11,05,12.80
2012,04,21,11,06,12.70
2012,04,21,11,07,12.70
2012,04,21,11,08,12.70
2012,04,21,11,09,12.70
2012,04,21,11,10,12.80
2012,04,21,11,11,12.80
2012,04,21,11,12,12.80
2012,04,21,11,13,12.80
2012,04,21,11,14,12.80
2012,04,21,11,15,12.80
2012,04,21,11,16,12.80
2012,04,21,11,17,12.80
2012,04,21,11,18,12.80
2012,04,21,11,19,12.70
2012,04,21,11,20,12.70
2012,04,21,11,21,12.70
2012,04,21,11,22,12.80
2012,04,21,11,23,12.80
2012,04,21,11,24,12.90
2012,04,21,11,25,13.00
2012,04,21,11,26,13.10
2012,04,21,11,27,13.20
2012,04,21,11,28,13.20
2012,04,21,11,29,13.20
2012,04,21,11,30,13.20
2012,04,21,11,31,13.20
2012,04,21,11,32,13.20
2012,04,21,11,33,13.10
2012,04,21,11,34,13.10
2012,04,21,11,35,13.20
2012,04,21,11,36,13.20
2012,04,21,11,37,13.30
2012,04,21,11,38,13.40
2012,04,21,11,39,13.40
2012,04,21,11,40,13.40
2012,04,21,11,41,13.40
2012,04,21,11,42,13.50
2012,04,21,11,43,13.50
2012,04,21,11,44,13.50
2012,04,21,11,45,13.60
2012,04,21,11,46,13.60
2012,04,21,11,47,13.70
2012,04,21,11,48,13.80
2012,04,21,11,49,13.80
2012,04,21,11,50,13.70
2012,04,21,11,51,13.60
2012,04,21,11,52,13.60
2012,04,21,11,53,13.70
2012,04,21,11,54,13.80
2012,04,21,11,55,13.80
2012,04,21,11,56,13.80
2012,04,21,11,57,13.90
2012,04,21,11,58,14.00
2012,04,21,11,59,13.90
2012,04,21,12,00,13.90
2012,04,21,12,01,13.90
2012,04,21,12,02,13.90
2012,04,21,12,03,14.00
2012,04,21,12,04,14.10
2012,04,21,12,05,14.20
2012,04,21,12,06,14.20
2012,04,21,12,07,14.20
2012,04,21,12,08,14.10
2012,04,21,12,09,14.00
2012,04,21,12,10,13.90
2012,04,21,12,11,13.80
2012,04,21,12,12,13.80
2012,04,21,12,13,13.80
2012,04,21,12,14,13.80
2012,04,21,12,15,13.80
2012,04,21,12,16,13.90
2012,04,21,12,17,13.90
2012,04,21,12,18,14.00
2012,04,21,12,19,14.10
2012,04,21,12,20,14.10
2012,04,21,12,21,14.20
2012,04,21,12,22,14.30
2012,04,21,12,23,14.40
2012,04,21,12,24,14.50
2012,04,21,12,25,14.60
2012,04,21,12,26,14.70
2012,04,21,12,27,14.70
2012,04,21,12,28,14.70
2012,04,21,12,29,14.80
2012,04,21,12,30,14.80
2012,04,21,12,31,14.90
2012,04,21,12,32,14.90
2012,04,21,12,33,15.10
2012,04,21,12,34,15.10
2012,04,21,12,35,15.20
2012,04,21,12,36,15.10
2012,04,21,12,37,15.10
2012,04,21,12,38,14.90
2012,04,21,12,39,14.80
2012,04,21,12,40,14.60
2012,04,21,12,41,14.40
2012,04,21,12,42,14.40
2012,04,21,12,43,14.40
2012,04,21,12,44,14.30
2012,04,21,12,45,14.30
2012,04,21,12,46,14.30
2012,04,21,12,47,14.20
2012,04,21,12,48,14.20
2012,04,21,12,49,14.10
2012,04,21,12,50,14.10
2012,04,21,12,51,14.10
2012,04,21,12,52,14.10
2012,04,21,12,53,14.10
2012,04,21,12,54,14.10
2012,04,21,12,55,14.20
2012,04,21,12,56,14.20
2012,04,21,12,57,14.20
2012,04,21,12,58,14.20
2012,04,21,12,59,14.20
2012,04,21,13,00,14.10
2012,04,21,13,01,14.10
2012,04,21,13,02,14.10
2012,04,21,13,03,14.10
2012,04,21,13,04,14.10
2012,04,21,13,05,14.00
2012,04,21,13,06,14.00
2012,04,21,13,07,14.00
2012,04,21,13,08,14.00
2012,04,21,13,09,14.10
2012,04,21,13,10,14.10
2012,04,21,13,11,14.10
2012,04,21,13,12,14.00
2012,04,21,13,13,14.00
2012,04,21,13,14,13.90
2012,04,21,13,15,13.90
2012,04,21,13,16,14.00
2012,04,21,13,17,14.00
2012,04,21,13,18,14.00
2012,04,21,13,19,14.00
2012,04,21,13,20,14.00
2012,04,21,13,21,14.00
2012,04,21,13,22,14.10
2012,04,21,13,23,14.10
2012,04,21,13,24,14.20
2012,04,21,13,25,14.20
2012,04,21,13,26,14.20
2012,04,21,13,27,14.20
2012,04,21,13,28,14.20
2012,04,21,13,29,14.20
2012,04,21,13,30,14.20
2012,04,21,13,31,14.30
2012,04,21,13,32,14.20
2012,04,21,13,33,14.20
2012,04,21,13,34,14.10
2012,04,21,13,35,14.10
2012,04,21,13,36,14.20
2012,04,21,13,37,14.20
2012,04,21,13,38,14.20
2012,04,21,13,39,14.20
2012,04,21,13,40,14.20
2012,04,21,13,41,14.20
2012,04,21,13,42,14.10
2012,04,21,13,43,14.20
2012,04,21,13,44,14.20
2012,04,21,13,45,14.20
2012,04,21,13,46,14.20
2012,04,21,13,47,14.10
2012,04,21,13,48,14.10
2012,04,21,13,49,14.10
2012,04,21,13,50,14.10
2012,04,21,13,51,14.10
2012,04,21,13,52,14.10
2012,04,21,13,53,14.10
2012,04,21,13,54,14.10
2012,04,21,13,55,14.10
2012,04,21,13,56,14.10
2012,04,21,13,57,14.20
2012,04,21,13,58,14.30
2012,04,21,13,59,14.30
2012,04,21,14,00,14.30
2012,04,21,14,01,14.30
2012,04,21,14,02,14.40
2012,04,21,14,03,14.50
2012,04,21,14,04,14.60
2012,04,21,14,05,14.70
2012,04,21,14,06,14.80
2012,04,21,14,07,14.80
2012,04,21,14,08,14.80
2012,04,21,14,09,14.80
2012,04,21,14,10,14.80
2012,04,21,14,11,14.80
2012,04,21,14,12,14.70
2012,04,21,14,13,14.70
2012,04,21,14,14,14.70
2012,04,21,14,15,14.80
2012,04,21,14,16,14.80
2012,04,21,14,17,14.80
2012,04,21,14,18,14.80
2012,04,21,14,19,14.70
2012,04,21,14,20,14.60
2012,04,21,14,21,14.60
2012,04,21,14,22,14.60
2012,04,21,14,23,14.70
2012,04,21,14,24,14.80
2012,04,21,14,25,14.80
2012,04,21,14,26,14.80
2012,04,21,14,27,14.80
2012,04,21,14,28,14.80
2012,04,21,14,29,14.80
2012,04,21,14,30,14.80
2012,04,21,14,31,14.70
2012,04,21,14,32,14.60
2012,04,21,14,33,14.60
2012,04,21,14,34,14.60
2012,04,21,14,35,14.70
2012,04,21,14,36,14.90
2012,04,21,14,37,15.00
2012,04,21,14,38,15.20
2012,04,21,14,39,15.30
2012,04,21,14,40,15.30
2012,04,21,14,41,15.30
2012,04,21,14,42,15.20
2012,04,21,14,43,15.20
2012,04,21,14,44,15.20
2012,04,21,14,45,15.20
2012,04,21,14,46,15.20
2012,04,21,14,47,15.20
2012,04,21,14,48,15.10
2012,04,21,14,49,15.10
2012,04,21,14,50,15.10
2012,04,21,14,51,15.10
2012,04,21,14,52,15.00
2012,04,21,14,53,14.90
2012,04,21,14,54,14.80
2012,04,21,14,55,14.80
2012,04,21,14,56,14.80
2012,04,21,14,57,14.90
2012,04,21,14,58,14.90
2012,04,21,14,59,15.00
2012,04,21,15,00,15.00
2012,04,21,15,01,15.00
2012,04,21,15,02,14.90
2012,04,21,15,03,14.90
2012,04,21,15,04,15.00
2012,04,21,15,05,15.00
2012,04,21,15,06,15.00
2012,04,21,15,07,15.00
2012,04,21,15,08,15.10
2012,04,21,15,09,15.00
2012,04,21,15,10,15.00
2012,04,21,15,11,15.00
2012,04,21,15,12,14.90
2012,04,21,15,13,14.80
2012,04,21,15,14,14.80
2012,04,21,15,15,14.80
2012,04,21,15,16,14.80
2012,04,21,15,17,14.80
2012,04,21,15,18,14.80
2012,04,21,15,19,14.80
2012,04,21,15,20,14.80
2012,04,21,15,21,14.90
2012,04,21,15,22,15.00
2012,04,21,15,23,15.20
2012,04,21,15,24,15.30
2012,04,21,15,25,15.30
2012,04,21,15,26,15.40
2012,04,21,15,27,15.50
2012,04,21,15,28,15.60
2012,04,21,15,29,15.70
2012,04,21,15,30,15.70
2012,04,21,15,31,15.70
2012,04,21,15,32,15.70
2012,04,21,15,33,15.80
2012,04,21,15,34,15.80
2012,04,21,15,35,15.80
2012,04,21,15,36,15.80
2012,04,21,15,37,15.70
2012,04,21,15,38,15.70
2012,04,21,15,39,15.70
2012,04,21,15,40,15.70
2012,04,21,15,41,15.70
2012,04,21,15,42,15.70
2012,04,21,15,43,15.70
2012,04,21,15,44,15.60
2012,04,21,15,45,15.60
2012,04,21,15,46,15.60
2012,04,21,15,47,15.50
2012,04,21,15,48,15.50
2012,04,21,15,49,15.50
2012,04,21,15,50,15.50
2012,04,21,15,51,15.50
2012,04,21,15,52,15.50
2012,04,21,15,53,15.40
2012,04,21,15,54,15.40
2012,04,21,15,55,15.30
2012,04,21,15,56,15.30
2012,04,21,15,57,15.30
2012,04,21,15,58,15.40
2012,04,21,15,59,15.40
2012,04,21,16,00,15.40
2012,04,21,16,01,15.40
2012,04,21,16,02,15.30
2012,04,21,16,03,15.30
2012,04,21,16,04,15.30
2012,04,21,16,05,15.40
2012,04,21,16,06,15.40
2012,04,21,16,07,15.40
2012,04,21,16,08,15.40
2012,04,21,16,09,15.40
2012,04,21,16,10,15.40
2012,04,21,16,11,15.40
2012,04,21,16,12,15.40
2012,04,21,16,13,15.40
2012,04,21,16,14,15.40
2012,04,21,16,15,15.50
2012,04,21,16,16,15.50
2012,04,21,16,17,15.40
2012,04,21,16,18,15.40
2012,04,21,16,19,15.30
2012,04,21,16,20,15.20
2012,04,21,16,21,15.10
2012,04,21,16,22,15.10
2012,04,21,16,23,15.10
2012,04,21,16,24,15.10
2012,04,21,16,25,15.20
2012,04,21,16,26,15.20
2012,04,21,16,27,15.20
2012,04,21,16,28,15.20
2012,04,21,16,29,15.30
2012,04,21,16,30,15.20
2012,04,21,16,31,15.10
2012,04,21,16,32,15.10
2012,04,21,16,33,15.20
2012,04,21,16,34,15.30
2012,04,21,16,35,15.30
2012,04,21,16,36,15.30
2012,04,21,16,37,15.40
2012,04,21,16,38,15.50
2012,04,21,16,39,15.60
2012,04,21,16,40,15.60
2012,04,21,16,41,15.60
2012,04,21,16,42,15.70
2012,04,21,16,43,15.80
2012,04,21,16,44,15.70
2012,04,21,16,45,15.60
2012,04,21,16,46,15.60
2012,04,21,16,47,15.60
2012,04,21,16,48,15.60
2012,04,21,16,49,15.70
2012,04,21,16,50,15.70
2012,04,21,16,51,15.70
2012,04,21,16,52,15.70
2012,04,21,16,53,15.60
2012,04,21,16,54,15.60
2012,04,21,16,55,15.60
2012,04,21,16,56,15.50
2012,04,21,16,57,15.50
2012,04,21,16,58,15.50
2012,04,21,16,59,15.50
2012,04,21,17,00,15.60
2012,04,21,17,01,15.60
2012,04,21,17,02,15.70
2012,04,21,17,03,15.80
2012,04,21,17,04,15.80
2012,04,21,17,05,15.80
2012,04,21,17,06,15.80
2012,04,21,17,07,15.80
2012,04,21,17,08,15.80
2012,04,21,17,09,15.90
2012,04,21,17,10,15.90
2012,04,21,17,11,15.80
2012,04,21,17,12,15.80
2012,04,21,17,13,15.80
2012,04,21,17,14,15.80
2012,04,21,17,15,15.90
2012,04,21,17,16,15.80
2012,04,21,17,17,15.80
2012,04,21,17,18,15.80
2012,04,21,17,19,15.70
2012,04,21,17,20,15.70
2012,04,21,17,21,15.70
2012,04,21,17,22,15.70
2012,04,21,17,23,15.70
2012,04,21,17,24,15.80
2012,04,21,17,25,15.80
2012,04,21,17,26,15.80
2012,04,21,17,27,15.70
2012,04,21,17,28,15.60
2012,04,21,17,29,15.50
2012,04,21,17,30,15.40
2012,04,21,17,31,15.40
2012,04,21,17,32,15.40
2012,04,21,17,33,15.40
2012,04,21,17,34,15.40
2012,04,21,17,35,15.40
2012,04,21,17,36,15.40
2012,04,21,17,37,15.40
2012,04,21,17,38,15.50
2012,04,21,17,39,15.50
2012,04,21,17,40,15.50
2012,04,21,17,41,15.50
2012,04,21,17,42,15.50
2012,04,21,17,43,15.50
2012,04,21,17,44,15.40
2012,04,21,17,45,15.40